Flag Weather past 2 weeks in Kapfenberg, Styria, Austria

Now
39 °F

Overcast.


Feels Like: 37 °F
Forecast: 30 / 50 °F
Wind: 3 mph from North

Location: Zeltweg

Current Time: Nov 21, 2014 at 5:24:57 PM

Latest Report: Nov 21, 2014 at 4:50 PM


Visibility: 6 mi

Pressure: 30.24 "Hg

Humidity: 81%

Dew point: 34 °F

Location of KapfenbergLocation

Historic Weather in Kapfenberg — Graph

°F

Kapfenberg temperature yesterday

Maximum temperature yesterday: 50 °F (at 2:20 PM)
Minimum temperature yesterday: 32 °F (at 9:50 PM)
Average temperature yesterday: 41 °F

Past Weeks' High & Low Weather Summary

 TemperatureHumidityPressure
High61 °F (Nov 11, 1:50 PM)100% (Nov 6, 3:20 PM)30.27 "Hg (Nov 6, 3:20 PM)
Low32 °F (Nov 20, 9:50 PM)51% (Nov 16, 12:50 PM)29.59 "Hg (Nov 16, 4:50 AM)
Average48 °F87%29.91 "Hg
* Reported Nov 6 3:20 PM — Nov 21 3:50 PM, Kapfenberg, Weather by CustomWeather, © 2014

Note: Actual official high and low records may vary slightly from our data, if they occured in-between our weather recording intervals... More about our weather records

Advertising

Kapfenberg weather history for previous 24 hours

 ConditionsComfort  
Time TempWeatherWind HumidityBarometerVisibility
3:50 PM
Nov 21
39 °FOvercast.1 mph75%30.24 "Hg9 mi
3:20 PM39 °FOvercast.5 mph75%30.24 "Hg9 mi
2:50 PM39 °FOvercast.2 mph75%30.24 "Hg9 mi
2:20 PM39 °FOvercast.2 mph75%30.24 "Hg9 mi
1:50 PM39 °FOvercast.3 mph75%30.24 "Hg9 mi
1:20 PM39 °FOvercast.3 mph81%30.24 "Hg9 mi
11:20 AM37 °FLow clouds.1 mph87%30.27 "Hg9 mi
10:50 AM37 °FLow clouds.1 mph87%30.27 "Hg9 mi
10:20 AM36 °FLow clouds.1 mph87%30.27 "Hg9 mi
9:50 AM36 °FLow clouds.1 mph87%30.27 "Hg9 mi
9:20 AM36 °FLow clouds.1 mph87%30.27 "Hg9 mi
8:50 AM34 °FLow clouds.1 mph93%30.27 "Hg9 mi
8:20 AM34 °FLow clouds.1 mph93%30.27 "Hg9 mi
7:50 AM34 °FPartly sunny.1 mph93%30.27 "Hg6 mi
7:20 AM34 °FMore clouds than sun.2 mph93%30.27 "Hg6 mi
6:50 AM34 °FMostly cloudy.1 mph93%30.27 "Hg6 mi
3:50 AM32 °FMostly cloudy.1 mph93%30.24 "Hg4 mi
12:50 AM32 °FPassing clouds.1 mph93%30.27 "Hg6 mi
9:50 PM
Nov 20
32 °FPassing clouds.1 mph93%30.27 "Hg6 mi
8:50 PM34 °FPassing clouds.1 mph93%30.24 "Hg6 mi
7:50 PM34 °FPassing clouds.1 mph93%30.24 "Hg12 mi
6:50 PM36 °FPassing clouds.2 mph87%30.24 "Hg12 mi
5:50 PM37 °FPassing clouds.1 mph87%30.24 "Hg19 mi
Weather by CustomWeather, © 2014

See weather overviewHow to use our weather pages